Regional Weather Roundup
Issued by NWS

Home | Current Version | Previous Version | Text Only | Print | Product List | Glossary Off
Versions: 1 2 3 4 5 6 7 8 9 10 11 12 13 14 15 16 17 18 19 20 21 22 23 24 25 26 27 28 29 30 31 32 33 34 35 36 37 38 39 40 41 42 43 44 45 46 47 48 49 50

000
ASUS43 KLSX 172357
RWRMO

WEATHER SUMMARY FOR MISSOURI
NATIONAL WEATHER SERVICE SPRINGFIELD MO
700 PM CDT THU AUG 17 2017

NOTE: "FAIR" INDICATES FEW OR NO CLOUDS BELOW 12,000 FEET WITH NO
       SIGNIFICANT WEATHER AND/OR OBSTRUCTIONS TO VISIBILITY.
       CURRENT SKY AND/OR WEATHER CONDITIONS ARE NOT AVAILABLE FOR
       CHILLICOTHE AND FARMINGTON.

MOZ001>031-035>038-043-044-053-054-180100-
...NORTHERN AND WESTERN MISSOURI...

CITY           SKY/WX    TMP DP  RH WIND       PRES   REMARKS
KANSAS CTY INT SUNNY     82  65  56 NW5       29.93S
6HR MIN TEMP:  79; 6HR MAX TEMP:  84;

LEE`S SUMMIT   SUNNY     81  63  54 W6        29.93F
6HR MIN TEMP:  78; 6HR MAX TEMP:  82;

ST JOSEPH      SUNNY     80  63  55 NW7       29.92S
6HR MIN TEMP:  79; 6HR MAX TEMP:  84;

CHILLICOTHE      N/A     82  60  47 VRB6      29.90S
6HR MIN TEMP:  80; 6HR MAX TEMP:  84;


$$
MOZ066>068-077>081-088>096-101>105-180100-
...SOUTHWEST MISSOURI...

CITY           SKY/WX    TMP DP  RH WIND       PRES   REMARKS
SPRINGFIELD    SUNNY     81  66  60 NW6       29.96S
6HR MIN TEMP:  79; 6HR MAX TEMP:  84;

JOPLIN         SUNNY     83  66  56 W8        29.97S
6HR MIN TEMP:  82; 6HR MAX TEMP:  86;

BRANSON        MOSUNNY   81  68  65 W6        29.98R

$$
MOZ032>034-039>042-045>050-055>058-069>072-180100-
...CENTRAL MISSOURI...

CITY           SKY/WX    TMP DP  RH WIND       PRES   REMARKS
COLUMBIA       NOT AVBL
JEFFERSON CITY SUNNY     81  66  60 NW8       29.89S
6HR MIN TEMP:  78; 6HR MAX TEMP:  83;

ROLLA          SUNNY     78  64  61 W9        29.93S
6HR MIN TEMP:  78; 6HR MAX TEMP:  82;

SEDALIA        SUNNY     80  65  59 W6        29.93S
6HR MIN TEMP:  79; 6HR MAX TEMP:  85;

WARRENSBURG    SUNNY     79  63  57 W5        29.92F

$$
MOZ051-052-059>065-180100-
...EAST CENTRAL MISSOURI...

CITY           SKY/WX    TMP DP  RH WIND       PRES   REMARKS
ST LOUIS INTL  CLOUDY    83  64  52 W13       29.87R
6HR MIN TEMP:  83; 6HR MAX TEMP:  88;


$$
MOZ072>076-082>087-097>100-106>115-180100-
...SOUTH CENTRAL AND SOUTHEAST MISSOURI...

CITY           SKY/WX    TMP DP  RH WIND       PRES   REMARKS
CAPE GIRARDEAU CLOUDY    81  73  76 SW7       29.87F
6HR MIN TEMP:  79; 6HR MAX TEMP:  84;

POPLAR BLUFF   CLOUDY    81  76  84 SW5       29.88F
6HR MIN TEMP:  79; 6HR MAX TEMP:  84;

WEST PLAINS    MOSUNNY   82  68  62 W5        29.96S
6HR MIN TEMP:  79; 6HR MAX TEMP:  85;


$$


USA.gov is the U.S. government's official web portal to all federal, state and local government web resources and services.